Regional Weather Roundup
Issued by NWS

Home | Current Version | Previous Version | Text Only | Print | Product List | Glossary Off
Versions: 1 2 3 4 5 6 7 8 9 10 11 12 13 14 15 16 17 18 19 20 21 22 23 24 25 26 27 28 29 30 31 32 33 34 35 36 37 38 39 40 41 42 43 44 45 46 47 48 49 50

000
ASUS43 KDMX 211007
RWRIA

WEATHER ROUNDUP FOR IOWA
NATIONAL WEATHER SERVICE DES MOINES IA
500 AM CDT TUE APR 21 2015

NOTE: "FAIR" INDICATES FEW OR NO CLOUDS BELOW 12,000 FEET WITH NO
SIGNIFICANT WEATHER AND/OR OBSTRUCTIONS TO VISIBILITY.

* - THESE STATIONS ARE NOT NWS STATIONS...THUS NOT UNDER NWS
QUALITY CONTROL.  THEY ALSO DO NOT REPORT WEATHER SUCH
AS PRECIPITATION OR FOG.

IAZ001>003-012>014-020>022-031>034-043>046-211100-
   NORTHWEST IOWA

CITY           SKY/WX    TMP DP  RH WIND       PRES   REMARKS
CARROLL *      CLEAR     32  23  69 W12       29.75F WCI  23
CHEROKEE *     CLEAR     32  21  64 W6        29.74F WCI  26
DENISON *      CLEAR     34  19  55 W9        29.75F WCI  26
LE MARS *      CLEAR     30  18  59 SW5       29.77F WCI  25
ORANGE CITY *  CLEAR     27  19  74 SW9       29.74S WCI  17
SHELDON *      CLEAR     32  23  69 W13       29.70F WCI  22
SIOUX CITY     CLEAR     33  15  47 NW7       29.78F WCI  27
SPENCER        CLEAR     32  26  78 W13       29.70F WCI  22
STORM LAKE *   CLEAR     32  21  64 W10       29.74S WCI  24
$$

IAZ055>058-069>071-079>083-090>094-211100-
   SOUTHWEST IOWA

CITY           SKY/WX    TMP DP  RH WIND       PRES   REMARKS
ATLANTIC *     CLEAR     39  21  48 W9        29.79S WCI  33
AUDUBON *      CLEAR     36  19  51 W5        29.78S WCI  32
CLARINDA *     MOCLDY    39  27  60 W9        29.83S WCI  33
COUNCIL BLFS * CLEAR     41  23  48 NW8       29.81S
CRESTON *      CLEAR     36  25  64 W13       29.79R WCI  27
HARLAN  *      CLEAR     36  23  60 W14       29.82S WCI  27
LAMONI         MOCLDY    41  27  57 W13       29.78S
RED OAK *      PTCLDY    37  27  65 W7        29.81F WCI  32
SHENANDOAH *   PTCLDY    37  30  75 SW7       29.83S WCI  32
$$

IAZ047>049-059>061-072>074-084-211100-
   CENTRAL IOWA

CITY           SKY/WX    TMP DP  RH WIND       PRES   REMARKS
AMES             N/A     37  27  67 W9        29.73S WCI  30
ANKENY *       CLEAR     36  25  64 W7        29.75S WCI  30
CHARITON *     PTCLDY    37  23  56 W12       29.76S WCI  30
DES MOINES     CLEAR     38  21  50 W6        29.76R WCI  33
GRINNELL*      CLEAR     37  28  70 W12       29.72S WCI  30
KNOXVILLE *    CLEAR     36  23  60 W8        29.75R WCI  29
MARSHALLTOWN   CLEAR     38  28  67 W15       29.69S WCI  29
PELLA *        CLEAR     37  28  70 W9        29.76R WCI  31
PERRY *          N/A     32  28  86 W8        29.75F WCI  25
$$

IAZ004>006-015-016-023>025-035-036-211100-
   NORTH CENTRAL IOWA

CITY           SKY/WX    TMP DP  RH WIND       PRES   REMARKS
ALGONA *       CLEAR     34  28  80 W12       29.70R WCI  25
CLARION *      CLEAR     34  30  86 W14       29.69S WCI  24
ESTHERVILLE      N/A     34  26  72 W10       29.67F WCI  26
FORT DODGE *   CLEAR     36  25  64 W7        29.72S WCI  30
MASON CITY     CLEAR     34  27  75 W18       29.65S WCI  23
FOREST CITY *  CLEAR     34  28  80 W16       29.65S WCI  23
IOWA FALLS *     N/A     36  28  75 W15       29.69S WCI  26
$$

IAZ007>011-017>019-026>030-037>042-050>054-066-211100-
   NORTHEAST IOWA

CITY           SKY/WX    TMP DP  RH WIND       PRES   REMARKS
CEDAR RAPIDS   CLEAR     36  30  79 W13       29.67S WCI  27
CHARLES CITY * CLOUDY    37  30  75 W20G26    29.62S WCI  27
CLINTON *      CLEAR     37  28  70 W17       29.67S WCI  28
DECORAH *      CLOUDY    37  28  70 W12G20    29.56S WCI  30
DUBUQUE        CLOUDY    38  29  70 W17G29    29.60S WCI  28
MONTICELLO *   PTCLDY    37  30  75 W14       29.63S WCI  29
OELWEIN *      CLOUDY    37  30  75 W17       29.63R WCI  28
WATERLOO       CLEAR     37  28  70 W16       29.65S WCI  28
$$

IAZ064-065-067-068-078-211100-
   EAST CENTRAL IOWA

CITY           SKY/WX    TMP DP  RH WIND       PRES   REMARKS
DAVENPORT      CLEAR     37  29  72 W14       29.67S WCI  28
IOWA CITY      CLEAR     38  30  73 W10       29.71R WCI  31
MT. PLEASANT * CLEAR     32  25  74 SW7       29.73S WCI  26
MUSCATINE *    CLEAR     37  30  75 SW10      29.71R WCI  30
QUAD CITIES    CLEAR     38  30  73 W10       29.68R WCI  31
$$

IAZ062-063-075>077-085>089-095>099-211100-
   SOUTHEAST IOWA

CITY           SKY/WX    TMP DP  RH WIND       PRES   REMARKS
BURLINGTON     CLEAR     39  26  59 W9        29.72S WCI  33
FAIRFIELD *    CLEAR     36  25  64 W7        29.73S WCI  30
FORT MADISON * CLEAR     37  27  65 W7        29.74R WCI  32
KEOKUK *       CLEAR     41  27  56 SW10      29.74R
OSKALOOSA *      N/A     32  27  80 W9        29.75R WCI  24
CENTERVILLE *  PTCLDY    37  27  65 W13       29.77S WCI  29
OTTUMWA        CLEAR     36  23  59 W8        29.74R WCI  30
WASHINGTON *   CLEAR     36  28  75 W8        29.72R WCI  29
$$

ABBREVIATIONS USED IN REMARKS
   TC - TEMPERATURES IN CELSIUS
  WCI - WIND CHILL INDEX
   HX - HEAT INDEX
  VSB - VISIBILITY
$$




USA.gov is the U.S. government's official web portal to all federal, state and local government web resources and services.